Location: ?ernice
(48.8383°N, 14.3803°E)
Time: 17:01:36
(UTC+00:00)

BREEZE-M R/B - Pass Details

Date: 23 May 2024
Orbit: 670 x 26486 km, 48.9° (Epoch: 12 June)

Event Time Altitude Azimuth Distance (km) Brightness Sun altitude
Exits shadow 00:58:12 22° 195° (SSW) 1,920 4.5 -15.6°
Maximum altitude 01:01:21 45° 133° (SE) 1,741 4.7 -15.4°
Drops below altitude 10° 01:16:01 10° 66° (ENE) 7,415 8.9 -14.1°
Sets 01:27:52 0° 64° (ENE) 11,639 10.2 -13.0°
